Seleccionar outro período ( esconder esta área )

Sistema Período Período personalizado Ir para
Metrico Inglês Ambos
Diário Semanal Mensal Anual
utilize ambos os seletores de data para um período personalizado
Anterior dia
Com esta data
Diário Sumário de Terça-feira Oct 4 2022
Hora Temp. ( °C ) P. orvalho ( °C ) Vento ( km/h ) De Rajada ( km/h ) Pressão ( hPa ) Humid.( % ) Quant. precip. ( cm ) Solar ( W/m2 )
Alta31,7 17,8 10,0 West ( 176/965 ) 13,0 1019,3 93 - 543.5
Média23,1 14,1 3,5 Calm #70/279 4,4 1017,9 63 - 299 #143/279
Baixa16,9 10,4 -   0,0 1016,9 29 -  
Diário Tabela detalhada Terça-feira Oct 4 2022
Hora Temp. ( °C ) P. orvalho ( °C ) Vento ( km/h ) De Rajada ( km/h ) Pressão ( hPa ) Humid.( % ) Quant. precip. ( cm ) Solar ( W/m2 )
00:04 19,0 17,8   Calm   1018,9 93 - -
00:09 19,0 17,8   Calm   1018,7 93 - -
00:14 19,0 17,8   Calm   1018,8 93 - -
00:19 19,0 17,8   Calm   1018,8 93 - -
00:24 18,9 17,7   Calm   1018,7 93 - -
00:29 18,9 17,7   Calm   1018,7 93 - -
00:34 18,9 17,7   Calm   1018,7 93 - -
00:39 18,8 17,6   Calm   1018,7 93 - -
00:44 18,8 17,6   Calm   1018,6 93 - -
00:49 18,8 17,6   Calm   1018,8 93 - -
00:54 18,7 17,5   Calm   1018,5 93 - -
00:59 18,8 17,6   Calm   1018,6 93 - -
01:04 18,7 17,5   Calm   1018,5 93 - -
01:09 18,6 17,4   Calm   1018,7 93 - -
01:14 18,7 17,5   Calm   1018,5 93 - -
01:19 18,7 17,5   Calm   1018,5 93 - -
01:24 18,7 17,4   Calm   1018,5 92 - -
01:29 18,6 17,3   Calm   1018,4 92 - -
01:34 18,6 17,3   Calm   1018,5 92 - -
01:39 18,6 17,3   Calm   1018,3 92 - -
01:44 18,6 17,3   Calm   1018,4 92 - -
01:49 18,5 17,2   Calm   1018,3 92 - -
01:54 18,5 17,2   Calm   1018,2 92 - -
01:59 18,5 17,2   Calm   1018,2 92 - -
02:04 18,4 17,1   Calm   1018,1 92 - -
02:09 18,3 17,0   Calm   1018,1 92 - -
02:14 18,4 17,1   Calm   1018,2 92 - -
02:19 18,3 17,0   Calm   1018,1 92 - -
02:24 18,0 16,7   Calm   1018,1 92 - -
02:29 18,0 16,7   Calm   1018,1 92 - -
02:34 18,1 16,8   Calm   1018,0 92 - -
02:39 18,1 16,8   Calm   1018,0 92 - -
02:44 18,0 16,7   Calm   1017,8 92 - -
02:49 18,2 16,8   Calm   1017,9 92 - -
02:54 18,3 16,8 2,0 West 2,0 1017,9 91 - -
02:59 18,3 16,8   Calm   1017,8 91 - -
03:04 18,2 16,7   Calm   1017,7 91 - -
03:09 18,2 16,5   Calm   1017,7 90 - -
03:14 18,1 16,4   Calm   1017,5 90 - -
03:19 18,1 16,4   Calm   1017,5 90 - -
03:24 18,1 16,4   Calm 2,0 1017,5 90 - -
03:29 18,2 16,5   Calm   1017,5 90 - -
03:34 18,2 16,5   Calm   1017,4 90 - -
03:39 18,2 16,5   Calm   1017,5 90 - -
03:44 18,1 16,4   Calm   1017,4 90 - -
03:49 17,9 16,3   Calm   1017,4 91 - -
03:54 17,8 16,3   Calm   1017,3 91 - -
03:59 17,9 16,4   Calm   1017,3 91 - -
04:04 17,8 16,3   Calm   1017,2 91 - -
04:09 17,8 16,3   Calm   1017,2 91 - -
04:14 17,8 16,3   Calm   1017,2 91 - -
04:19 17,8 16,3   Calm   1017,2 91 - -
04:24 17,9 16,4 1,0 West 2,0 1017,4 91 - -
04:29 18,1 16,4 2,0 West 4,0 1017,2 90 - -
04:34 18,0 16,3 4,0 WSW 6,0 1017,1 90 - -
04:39 17,9 16,3 3,0 WSW 4,0 1017,1 91 - -
04:44 17,8 16,3 4,0 West 6,0 1017,3 91 - -
04:49 17,7 16,2 4,0 WSW 4,0 1017,2 91 - -
04:54 17,6 16,1 5,0 WSW 6,0 1017,1 91 - -
04:59 17,5 16,1 5,0 WSW 6,0 1017,2 91 - -
05:04 17,5 16,1 5,0 WSW 7,0 1017,2 91 - -
05:09 17,5 16,1 7,0 West 9,0 1017,3 91 - -
05:14 17,5 15,8 8,0 West 9,0 1017,4 90 - -
05:19 17,5 15,6 8,0 West 9,0 1017,3 89 - -
05:24 17,5 15,6 7,0 West 9,0 1017,5 89 - -
05:29 17,5 15,6 6,0 West 7,0 1017,3 89 - -
05:34 17,4 15,4 7,0 WSW 9,0 1017,3 88 - -
05:39 17,4 15,4 6,0 West 7,0 1017,4 88 - -
05:44 17,4 15,2 6,0 West 7,0 1017,3 87 - -
05:49 17,4 15,2 4,0 West 6,0 1017,4 87 - -
05:54 17,3 15,2 8,0 West 9,0 1017,3 88 - -
05:59 17,2 15,2 6,0 West 7,0 1017,4 88 - -
06:04 17,2 15,2 6,0 West 9,0 1017,5 88 - -
06:09 17,2 15,3 7,0 West 9,0 1017,4 89 - -
06:14 17,2 15,3 6,0 West 7,0 1017,5 89 - -
06:19 17,2 15,3 6,0 WSW 9,0 1017,4 89 - -
06:24 17,2 15,3 6,0 WSW 6,0 1017,4 89 - -
06:29 17,2 15,3 5,0 SW 6,0 1017,4 89 - -
06:34 17,2 15,3 4,0 SW 6,0 1017,4 89 - -
06:39 17,2 15,2 5,0 WSW 6,0 1017,3 88 - -
06:44 17,2 15,2 3,0 WSW 4,0 1017,6 88 - -
06:49 17,1 15,1 1,0 WSW 4,0 1017,5 88 - -
06:54 17,0 15,0 3,0 WSW 4,0 1017,5 88 - -
06:59 17,0 15,0 4,0 WSW 6,0 1017,7 88 - -
07:04 16,9 14,9 4,0 WSW 6,0 1017,6 88 - -
07:09 16,9 14,9 3,0 WSW 4,0 1017,6 88 - -
07:14 16,9 14,9 6,0 WSW 7,0 1017,7 88 - -
07:19 17,0 15,0 4,0 West 6,0 1017,7 88 - -
07:24 17,0 15,0 6,0 WSW 9,0 1017,7 88 - -
07:29 17,1 15,1 4,0 WSW 6,0 1017,8 88 - 0.9
07:34 17,1 15,1 5,0 WSW 7,0 1017,7 88 - 1.7
07:39 17,1 15,2 6,0 West 9,0 1017,8 89 - 3.8
07:44 17,0 15,3 6,0 WSW 7,0 1017,7 90 - 7.3
07:49 17,1 15,4 6,0 West 9,0 1017,9 90 - 9.9
07:54 17,2 15,4 4,0 WSW 6,0 1017,7 90 - 14.7
07:59 17,2 15,3 5,0 SW 6,0 1017,9 89 - 19.1
08:04 17,3 15,3 6,0 SW 6,0 1017,8 88 - 24.2
08:09 17,4 15,2 6,0 WSW 6,0 1017,9 87 - 29.9
08:14 17,4 15,0 5,0 West 7,0 1018,0 86 - 35.5
08:19 17,4 15,2 5,0 West 7,0 1018,1 87 - 42
08:24 17,5 15,2 6,0 West 7,0 1018,1 87 - 48.1
08:29 17,5 15,1 6,0 West 6,0 1017,8 86 - 54.2
08:34 17,7 15,1 5,0 West 6,0 1018,0 86 - 60.7
08:39 17,9 15,0 4,0 West 6,0 1018,0 84 - 66.3
08:44 18,2 14,9 5,0 West 6,0 1018,1 82 - 73.3
08:49 18,4 14,9 5,0 West 6,0 1018,1 81 - 79.8
08:54 18,5 14,9 4,0 WSW 6,0 1018,1 80 - 86.7
08:59 18,6 15,1 4,0 West 6,0 1018,1 80 - 93.6
09:04 18,6 15,1 3,0 West 4,0 1018,1 80 - 100.2
09:09 18,9 15,2 3,0 WSW 4,0 1018,2 79 - 108.4
09:14 19,3 15,3 3,0 SW 4,0 1018,2 79 - 115.7
09:19 19,5 15,2 2,0 SW 4,0 1018,4 76 - 132.7
09:24 20,3 15,6   Calm   1018,5 76 - 144.9
09:29 20,3 15,4 3,0 WNW 4,0 1018,5 74 - 153.5
09:34 20,6 15,5   Calm   1018,5 74 - 166.1
09:39 20,9 15,6 1,0 West 2,0 1018,4 72 - 179.9
09:44 21,0 15,6 2,0 WSW 4,0 1018,5 71 - 190
09:49 21,0 15,6 2,0 WSW 2,0 1018,5 71 - 206.4
09:54 21,1 15,4 2,0 WNW 4,0 1018,7 70 - 222.9
09:59 21,7 15,3 1,0 WNW 2,0 1018,6 68 - 236
10:04 22,2 15,5   Calm   1018,7 67 - 246.8
10:09 23,0 15,9   Calm   1018,6 65 - 261.1
10:14 23,2 15,8 2,0 NNW 2,0 1018,7 63 - 269.4
10:19 23,2 15,3 2,0 NW 2,0 1018,6 63 - 285.4
10:24 23,1 14,9 3,0 NNW 4,0 1018,7 61 - 298
10:29 23,5 14,8 2,0 ENE 2,0 1018,9 60 - 311
10:34 23,9 15,1 2,0 WNW 2,0 1018,8 58 - 322.7
10:39 24,2 16,8 4,0 ENE 6,0 1018,9 65 - 336.5
10:44 23,5 16,7 5,0 NE 6,0 1019,0 68 - 350.9
10:49 23,0 16,6 6,0 North 6,0 1019,1 68 - 363.1
10:54 23,4 16,4 2,0 East 4,0 1019,0 68 - 383
10:59 23,6 16,2 4,0 NE 6,0 1019,1 64 - 395.1
11:04 23,9 15,9 3,0 NE 4,0 1019,2 63 - 408.6
11:09 24,0 15,8 4,0 NE 4,0 1019,0 60 - 422.1
11:14 23,6 15,3 6,0 North 7,0 1019,0 60 - 452.4
11:19 23,8 15,1 4,0 NNE 7,0 1019,1 58 - 455
11:24 24,3 14,1 4,0 ENE 6,0 1019,0 53 - 458.9
11:29 24,9 14,1 4,0 East 6,0 1019,2 52 - 471.1
11:34 25,2 14,1 4,0 NNE 4,0 1019,3 50 - 479.7
11:39 25,4 14,4 3,0 NE 4,0 1019,2 51 - 494.1
11:44 25,7 13,6 4,0 NE 6,0 1019,3 48 - 501.5
11:49 25,8 13,8 5,0 ENE 7,0 1019,2 48 - 502.7
11:54 26,0 14,1 6,0 ENE 7,0 1019,2 48 - 500.1
11:59 26,2 14,4 5,0 ENE 6,0 1019,1 49 - 520
12:04 26,3 14,4 6,0 NE 7,0 1019,1 49 - 530.5
12:09 25,7 14,2 6,0 ENE 7,0 1019,3 49 - 529.2
12:14 26,5 13,6 6,0 ENE 6,0 1019,1 46 - 541.3
12:19 26,5 13,4 6,0 NE 7,0 1019,0 45 - 539.6
12:24 26,3 13,0 6,0 NE 7,0 1019,0 44 - 540.5
12:29 26,8 13,2 6,0 ENE 9,0 1019,0 43 - 539.1
12:34 26,7 12,8 5,0 NE 7,0 1018,9 43 - 543.5
12:39 26,7 12,6 6,0 NNE 7,0 1019,0 42 - 537.9
12:44 27,5 12,4 4,0 NNE 4,0 1019,0 41 - 531.8
12:49 27,9 12,7 8,0 ENE 9,0 1018,8 39 - 532.3
12:54 27,3 12,2 6,0 ENE 7,0 1018,9 39 - 518.8
12:59 27,8 11,5 6,0 ENE 7,0 1018,9 37 - 511
13:04 27,8 11,7 6,0 ENE 7,0 1018,9 37 - 514.1
13:09 27,9 11,3 7,0 ENE 7,0 1018,9 36 - 511.4
13:14 27,9 11,3 6,0 NE 7,0 1018,9 36 - 490.2
13:19 27,9 11,1 5,0 NE 7,0 1018,9 35 - 491.9
13:24 28,3 11,4 6,0 ENE 7,0 1018,7 35 - 527
13:29 28,3 10,9 4,0 North 6,0 1018,8 34 - 534.8
13:34 28,8 11,2 4,0 NE 6,0 1018,6 34 - 543.5
13:39 29,2 11,1 4,0 NE 6,0 1018,7 33 - 540.5
13:44 29,6 11,6 6,0 NNW 7,0 1018,5 34 - 538.8
13:49 28,6 11,2 6,0 ENE 7,0 1018,5 34 - 534
13:54 28,9 11,2 6,0 NE 7,0 1018,6 34 - 541.8
13:59 29,0 11,4 10,0 NNE 13,0 1018,4 34 - 538.8
14:04 29,0 11,2 6,0 NNE 7,0 1018,5 33 - 533.1
14:09 28,8 11,3 7,0 NNE 7,0 1018,3 34 - 530.1
14:14 29,5 11,4 6,0 NE 7,0 1018,4 33 - 530.5
14:19 29,7 11,8 8,0 ENE 9,0 1018,2 33 - 530.9
14:24 29,6 11,2 6,0 ENE 7,0 1018,2 32 - 531.3
14:29 29,7 11,0 8,0 ENE 9,0 1018,3 32 - 517.5
14:34 29,7 11,3 7,0 NNE 9,0 1018,2 32 - 515.8
14:39 30,5 11,0 5,0 NNE 6,0 1018,0 32 - 504.5
14:44 30,6 11,6 7,0 ENE 11,0 1018,0 31 - 499.7
14:49 30,2 11,6 6,0 NE 9,0 1017,9 32 - 488.4
14:54 30,0 11,1 6,0 NNE 7,0 1017,9 31 - 494.1
14:59 30,2 11,6 6,0 ENE 7,0 1017,9 32 - 491.9
15:04 30,1 11,2 7,0 ENE 9,0 1017,8 31 - 485.4
15:09 30,2 11,1 6,0 NE 9,0 1017,7 31 - 482.7
15:14 30,8 11,3 4,0 NE 6,0 1017,6 30 - 473.7
15:19 31,7 11,5 4,0 ENE 6,0 1017,5 29 - 467.6
15:24 31,2 11,4 6,0 NE 7,0 1017,6 30 - 457.7
15:29 31,1 11,0 4,0 NNE 6,0 1017,6 29 - 445.4
15:34 31,4 11,3 6,0 NE 9,0 1017,5 29 - 436.4
15:39 31,1 11,2 7,0 North 9,0 1017,5 30 - 423.8
15:44 30,8 10,9 6,0 NNE 7,0 1017,4 30 - 417.7
15:49 30,9 11,2 6,0 NNW 9,0 1017,4 30 - 406.4
15:54 30,5 10,8 6,0 NNW 7,0 1017,3 30 - 399.4
15:59 30,6 11,1 6,0 NNW 7,0 1017,3 30 - 387
16:04 30,5 11,0 8,0 North 9,0 1017,4 30 - 371.8
16:09 30,0 10,6 6,0 NNE 6,0 1017,4 30 - 352.6
16:14 30,9 10,9 4,0 North 6,0 1017,4 30 - 338.8
16:19 30,9 11,3 6,0 North 7,0 1017,4 30 - 333.1
16:24 30,7 11,1 5,0 North 7,0 1017,5 30 - 323.1
16:29 30,4 10,9 6,0 NNW 7,0 1017,2 30 - 318.8
16:34 30,3 10,8 5,0 NW 7,0 1017,2 30 - 302.8
16:39 30,4 10,9 6,0 NW 7,0 1017,1 30 - 292.4
16:44 30,2 10,7 5,0 NNW 6,0 1017,0 30 - 281
16:49 30,4 11,2 5,0 NNW 6,0 1017,1 31 - 264.6
16:54 30,6 11,5 6,0 NW 6,0 1017,1 31 - 249.4
16:59 30,6 11,6 5,0 WNW 6,0 1017,1 31 - 242.5
17:04 30,1 10,7 5,0 NW 6,0 1017,1 30 - 235
17:09 30,0 11,1 6,0 WNW 6,0 1017,0 31 - 223.8
17:14 30,0 10,9 4,0 WNW 6,0 1017,1 31 - 207.4
17:19 30,1 10,6 4,0 NW 6,0 1017,2 30 - 199
17:24 30,1 10,9 6,0 NW 6,0 1017,1 31 - 186.9
17:29 29,8 10,9 4,0 WNW 4,0 1017,2 31 - 173
17:34 30,0 10,6 3,0 NW 4,0 1017,0 30 - 163.9
17:39 30,0 11,1 3,0 WNW 4,0 1017,0 31 - 149.6
17:44 29,9 11,0 4,0 WNW 6,0 1017,1 31 - 139.2
17:49 29,9 10,9 3,0 WNW 4,0 1016,9 31 - 128
17:54 29,8 10,9 2,0 WNW 4,0 1017,2 31 - 116.6
17:59 29,7 10,8 4,0 WNW 4,0 1017,0 31 - 105.8
18:04 29,8 10,8 3,0 WNW 4,0 1017,1 31 - 96.7
18:09 29,8 10,4 2,0 WNW 4,0 1017,0 30 - 87.1
18:14 29,7 11,4 5,0 WNW 6,0 1017,1 33 - 78.9
18:19 29,2 12,0 6,0 West 7,0 1017,0 35 - 69.7
18:24 28,5 12,0 8,0 WNW 9,0 1017,1 36 - 62.9
18:29 28,1 12,0 5,0 West 7,0 1017,0 37 - 54.6
18:34 28,0 12,0 5,0 WNW 6,0 1017,1 37 - 47.2
18:39 27,9 11,9 5,0 WNW 6,0 1017,0 37 - 42
18:44 27,9 12,3 6,0 WNW 6,0 1016,9 38 - 34.3
18:49 27,7 12,1 3,0 WNW 4,0 1017,1 38 - 28.1
18:54 27,6 12,4 4,0 West 4,0 1017,1 39 - 22.5
18:59 27,5 12,4 4,0 WNW 6,0 1017,0 39 - 16
19:04 27,5 13,3 2,0 WNW 4,0 1017,1 42 - 12.1
19:09 27,3 15,0 4,0 NW 6,0 1017,0 49 - 8.2
19:14 26,3 14,8 5,0 NW 6,0 1017,0 50 - 4.3
19:19 25,9 14,3 4,0 WNW 6,0 1017,0 49 - 1.7
19:24 26,2 13,5 5,0 WNW 6,0 1017,2 46 - -
19:29 26,2 13,4 4,0 NW 6,0 1017,1 45 - -
19:34 26,1 13,2 3,0 NW 4,0 1017,1 45 - -
19:39 26,0 13,2 4,0 NW 6,0 1017,1 45 - -
19:44 25,8 13,3 6,0 NW 6,0 1017,1 46 - -
19:49 25,7 13,2 5,0 WNW 6,0 1017,2 46 - -
19:54 25,7 13,5 6,0 NW 7,0 1017,2 47 - -
19:59 25,5 13,4 6,0 WNW 7,0 1017,2 47 - -
20:04 25,5 13,4 6,0 NW 7,0 1017,2 47 - -
20:09 25,3 13,2 6,0 NW 7,0 1017,3 47 - -
20:14 25,3 13,2 6,0 WNW 7,0 1017,3 47 - -
20:19 25,3 12,9 6,0 NW 7,0 1017,3 46 - -
20:24 25,3 12,9 5,0 NW 6,0 1017,3 46 - -
20:29 25,2 12,8 3,0 NW 4,0 1017,4 46 - -
20:34 25,0 12,6 2,0 WNW 4,0 1017,6 46 - -
20:39 24,9 12,8   Calm   1017,4 47 - -
20:44 24,7 13,0   Calm   1017,6 48 - -
20:49 24,8 13,3   Calm   1017,7 49 - -
20:54 24,6 13,1   Calm   1017,6 49 - -
20:59 24,3 13,0   Calm   1017,8 50 - -
21:04 24,0 13,3   Calm   1017,6 51 - -
21:09 23,7 13,2   Calm   1017,6 52 - -
21:14 23,6 13,2   Calm   1017,8 52 - -
21:19 23,6 13,4   Calm   1017,9 53 - -
21:24 23,5 13,6   Calm   1017,8 54 - -
21:29 23,4 13,6 3,0 SE 4,0 1017,9 54 - -
21:34 23,1 13,5 1,0 SE 2,0 1017,9 55 - -
21:39 22,8 13,6 2,0 SE 2,0 1017,8 56 - -
21:44 22,7 13,5 2,0 SE 2,0 1018,0 56 - -
21:49 22,6 13,7 2,0 SE 2,0 1017,9 58 - -
21:54 22,4 13,7 2,0 SSE 4,0 1017,9 58 - -
21:59 22,3 13,4 2,0 SSE 2,0 1018,0 57 - -
22:04 22,3 13,4   Calm   1018,1 57 - -
22:09 22,3 13,3 1,0 SW 2,0 1018,0 57 - -
22:14 22,5 13,2 1,0 SW 2,0 1018,0 56 - -
22:19 22,4 13,2   Calm   1018,1 56 - -
22:24 22,4 13,2   Calm   1018,1 56 - -
22:29 22,4 13,5   Calm   1018,1 57 - -
22:34 22,4 13,4 2,0 SW 2,0 1017,9 57 - -
22:39 22,4 13,2 1,0 SW 2,0 1018,1 56 - -
22:44 22,3 13,1 2,0 WSW 2,0 1018,0 56 - -
22:49 22,1 12,6 2,0 SW 2,0 1018,0 55 - -
22:54 22,0 12,6 2,0 WSW 4,0 1018,1 55 - -
22:59 21,9 12,5 2,0 West 4,0 1018,1 55 - -
23:04 21,8 12,7 1,0 SW 2,0 1018,1 56 - -
23:09 21,7 12,7 1,0 SSW 2,0 1018,3 57 - -
23:14 21,5 12,7   Calm   1018,1 57 - -
Diário Sumário de Terça-feira Oct 4 2022
Hora Temp. ( °C ) P. orvalho ( °C ) Vento ( km/h ) De Rajada ( km/h ) Pressão ( hPa ) Humid.( % ) Quant. precip. ( cm ) Solar ( W/m2 )
Alta31,7 17,8 10,0 West ( 176/965 ) 13,0 1019,3 93 - 543.5
Média23,1 14,1 3,5 Calm #70/279 4,4 1017,9 63 - 299 #143/279
Baixa16,9 10,4 -   0,0 1016,9 29 -  
Diário Tabela detalhada Terça-feira Oct 4 2022
Hora Temp. ( °C ) P. orvalho ( °C ) Vento ( km/h ) De Rajada ( km/h ) Pressão ( hPa ) Humid.( % ) Quant. precip. ( cm ) Solar ( W/m2 )
00:04 19,0 17,8   Calm   1018,9 93 - -
00:09 19,0 17,8   Calm   1018,7 93 - -
00:14 19,0 17,8   Calm   1018,8 93 - -
00:19 19,0 17,8   Calm   1018,8 93 - -
00:24 18,9 17,7   Calm   1018,7 93 - -
00:29 18,9 17,7   Calm   1018,7 93 - -
00:34 18,9 17,7   Calm   1018,7 93 - -
00:39 18,8 17,6   Calm   1018,7 93 - -
00:44 18,8 17,6   Calm   1018,6 93 - -
00:49 18,8 17,6   Calm   1018,8 93 - -
00:54 18,7 17,5   Calm   1018,5 93 - -
00:59 18,8 17,6   Calm   1018,6 93 - -
01:04 18,7 17,5   Calm   1018,5 93 - -
01:09 18,6 17,4   Calm   1018,7 93 - -
01:14 18,7 17,5   Calm   1018,5 93 - -
01:19 18,7 17,5   Calm   1018,5 93 - -
01:24 18,7 17,4   Calm   1018,5 92 - -
01:29 18,6 17,3   Calm   1018,4 92 - -
01:34 18,6 17,3   Calm   1018,5 92 - -
01:39 18,6 17,3   Calm   1018,3 92 - -
01:44 18,6 17,3   Calm   1018,4 92 - -
01:49 18,5 17,2   Calm   1018,3 92 - -
01:54 18,5 17,2   Calm   1018,2 92 - -
01:59 18,5 17,2   Calm   1018,2 92 - -
02:04 18,4 17,1   Calm   1018,1 92 - -
02:09 18,3 17,0   Calm   1018,1 92 - -
02:14 18,4 17,1   Calm   1018,2 92 - -
02:19 18,3 17,0   Calm   1018,1 92 - -
02:24 18,0 16,7   Calm   1018,1 92 - -
02:29 18,0 16,7   Calm   1018,1 92 - -
02:34 18,1 16,8   Calm   1018,0 92 - -
02:39 18,1 16,8   Calm   1018,0 92 - -
02:44 18,0 16,7   Calm   1017,8 92 - -
02:49 18,2 16,8   Calm   1017,9 92 - -
02:54 18,3 16,8 2,0 West 2,0 1017,9 91 - -
02:59 18,3 16,8   Calm   1017,8 91 - -
03:04 18,2 16,7   Calm   1017,7 91 - -
03:09 18,2 16,5   Calm   1017,7 90 - -
03:14 18,1 16,4   Calm   1017,5 90 - -
03:19 18,1 16,4   Calm   1017,5 90 - -
03:24 18,1 16,4   Calm 2,0 1017,5 90 - -
03:29 18,2 16,5   Calm   1017,5 90 - -
03:34 18,2 16,5   Calm   1017,4 90 - -
03:39 18,2 16,5   Calm   1017,5 90 - -
03:44 18,1 16,4   Calm   1017,4 90 - -
03:49 17,9 16,3   Calm   1017,4 91 - -
03:54 17,8 16,3   Calm   1017,3 91 - -
03:59 17,9 16,4   Calm   1017,3 91 - -
04:04 17,8 16,3   Calm   1017,2 91 - -
04:09 17,8 16,3   Calm   1017,2 91 - -
04:14 17,8 16,3   Calm   1017,2 91 - -
04:19 17,8 16,3   Calm   1017,2 91 - -
04:24 17,9 16,4 1,0 West 2,0 1017,4 91 - -
04:29 18,1 16,4 2,0 West 4,0 1017,2 90 - -
04:34 18,0 16,3 4,0 WSW 6,0 1017,1 90 - -
04:39 17,9 16,3 3,0 WSW 4,0 1017,1 91 - -
04:44 17,8 16,3 4,0 West 6,0 1017,3 91 - -
04:49 17,7 16,2 4,0 WSW 4,0 1017,2 91 - -
04:54 17,6 16,1 5,0 WSW 6,0 1017,1 91 - -
04:59 17,5 16,1 5,0 WSW 6,0 1017,2 91 - -
05:04 17,5 16,1 5,0 WSW 7,0 1017,2 91 - -
05:09 17,5 16,1 7,0 West 9,0 1017,3 91 - -
05:14 17,5 15,8 8,0 West 9,0 1017,4 90 - -
05:19 17,5 15,6 8,0 West 9,0 1017,3 89 - -
05:24 17,5 15,6 7,0 West 9,0 1017,5 89 - -
05:29 17,5 15,6 6,0 West 7,0 1017,3 89 - -
05:34 17,4 15,4 7,0 WSW 9,0 1017,3 88 - -
05:39 17,4 15,4 6,0 West 7,0 1017,4 88 - -
05:44 17,4 15,2 6,0 West 7,0 1017,3 87 - -
05:49 17,4 15,2 4,0 West 6,0 1017,4 87 - -
05:54 17,3 15,2 8,0 West 9,0 1017,3 88 - -
05:59 17,2 15,2 6,0 West 7,0 1017,4 88 - -
06:04 17,2 15,2 6,0 West 9,0 1017,5 88 - -
06:09 17,2 15,3 7,0 West 9,0 1017,4 89 - -
06:14 17,2 15,3 6,0 West 7,0 1017,5 89 - -
06:19 17,2 15,3 6,0 WSW 9,0 1017,4 89 - -
06:24 17,2 15,3 6,0 WSW 6,0 1017,4 89 - -
06:29 17,2 15,3 5,0 SW 6,0 1017,4 89 - -
06:34 17,2 15,3 4,0 SW 6,0 1017,4 89 - -
06:39 17,2 15,2 5,0 WSW 6,0 1017,3 88 - -
06:44 17,2 15,2 3,0 WSW 4,0 1017,6 88 - -
06:49 17,1 15,1 1,0 WSW 4,0 1017,5 88 - -
06:54 17,0 15,0 3,0 WSW 4,0 1017,5 88 - -
06:59 17,0 15,0 4,0 WSW 6,0 1017,7 88 - -
07:04 16,9 14,9 4,0 WSW 6,0 1017,6 88 - -
07:09 16,9 14,9 3,0 WSW 4,0 1017,6 88 - -
07:14 16,9 14,9 6,0 WSW 7,0 1017,7 88 - -
07:19 17,0 15,0 4,0 West 6,0 1017,7 88 - -
07:24 17,0 15,0 6,0 WSW 9,0 1017,7 88 - -
07:29 17,1 15,1 4,0 WSW 6,0 1017,8 88 - 0.9
07:34 17,1 15,1 5,0 WSW 7,0 1017,7 88 - 1.7
07:39 17,1 15,2 6,0 West 9,0 1017,8 89 - 3.8
07:44 17,0 15,3 6,0 WSW 7,0 1017,7 90 - 7.3
07:49 17,1 15,4 6,0 West 9,0 1017,9 90 - 9.9
07:54 17,2 15,4 4,0 WSW 6,0 1017,7 90 - 14.7
07:59 17,2 15,3 5,0 SW 6,0 1017,9 89 - 19.1
08:04 17,3 15,3 6,0 SW 6,0 1017,8 88 - 24.2
08:09 17,4 15,2 6,0 WSW 6,0 1017,9 87 - 29.9
08:14 17,4 15,0 5,0 West 7,0 1018,0 86 - 35.5
08:19 17,4 15,2 5,0 West 7,0 1018,1 87 - 42
08:24 17,5 15,2 6,0 West 7,0 1018,1 87 - 48.1
08:29 17,5 15,1 6,0 West 6,0 1017,8 86 - 54.2
08:34 17,7 15,1 5,0 West 6,0 1018,0 86 - 60.7
08:39 17,9 15,0 4,0 West 6,0 1018,0 84 - 66.3
08:44 18,2 14,9 5,0 West 6,0 1018,1 82 - 73.3
08:49 18,4 14,9 5,0 West 6,0 1018,1 81 - 79.8
08:54 18,5 14,9 4,0 WSW 6,0 1018,1 80 - 86.7
08:59 18,6 15,1 4,0 West 6,0 1018,1 80 - 93.6
09:04 18,6 15,1 3,0 West 4,0 1018,1 80 - 100.2
09:09 18,9 15,2 3,0 WSW 4,0 1018,2 79 - 108.4
09:14 19,3 15,3 3,0 SW 4,0 1018,2 79 - 115.7
09:19 19,5 15,2 2,0 SW 4,0 1018,4 76 - 132.7
09:24 20,3 15,6   Calm   1018,5 76 - 144.9
09:29 20,3 15,4 3,0 WNW 4,0 1018,5 74 - 153.5
09:34 20,6 15,5   Calm   1018,5 74 - 166.1
09:39 20,9 15,6 1,0 West 2,0 1018,4 72 - 179.9
09:44 21,0 15,6 2,0 WSW 4,0 1018,5 71 - 190
09:49 21,0 15,6 2,0 WSW 2,0 1018,5 71 - 206.4
09:54 21,1 15,4 2,0 WNW 4,0 1018,7 70 - 222.9
09:59 21,7 15,3 1,0 WNW 2,0 1018,6 68 - 236
10:04 22,2 15,5   Calm   1018,7 67 - 246.8
10:09 23,0 15,9   Calm   1018,6 65 - 261.1
10:14 23,2 15,8 2,0 NNW 2,0 1018,7 63 - 269.4
10:19 23,2 15,3 2,0 NW 2,0 1018,6 63 - 285.4
10:24 23,1 14,9 3,0 NNW 4,0 1018,7 61 - 298
10:29 23,5 14,8 2,0 ENE 2,0 1018,9 60 - 311
10:34 23,9 15,1 2,0 WNW 2,0 1018,8 58 - 322.7
10:39 24,2 16,8 4,0 ENE 6,0 1018,9 65 - 336.5
10:44 23,5 16,7 5,0 NE 6,0 1019,0 68 - 350.9
10:49 23,0 16,6 6,0 North 6,0 1019,1 68 - 363.1
10:54 23,4 16,4 2,0 East 4,0 1019,0 68 - 383
10:59 23,6 16,2 4,0 NE 6,0 1019,1 64 - 395.1
11:04 23,9 15,9 3,0 NE 4,0 1019,2 63 - 408.6
11:09 24,0 15,8 4,0 NE 4,0 1019,0 60 - 422.1
11:14 23,6 15,3 6,0 North 7,0 1019,0 60 - 452.4
11:19 23,8 15,1 4,0 NNE 7,0 1019,1 58 - 455
11:24 24,3 14,1 4,0 ENE 6,0 1019,0 53 - 458.9
11:29 24,9 14,1 4,0 East 6,0 1019,2 52 - 471.1
11:34 25,2 14,1 4,0 NNE 4,0 1019,3 50 - 479.7
11:39 25,4 14,4 3,0 NE 4,0 1019,2 51 - 494.1
11:44 25,7 13,6 4,0 NE 6,0 1019,3 48 - 501.5
11:49 25,8 13,8 5,0 ENE 7,0 1019,2 48 - 502.7
11:54 26,0 14,1 6,0 ENE 7,0 1019,2 48 - 500.1
11:59 26,2 14,4 5,0 ENE 6,0 1019,1 49 - 520
12:04 26,3 14,4 6,0 NE 7,0 1019,1 49 - 530.5
12:09 25,7 14,2 6,0 ENE 7,0 1019,3 49 - 529.2
12:14 26,5 13,6 6,0 ENE 6,0 1019,1 46 - 541.3
12:19 26,5 13,4 6,0 NE 7,0 1019,0 45 - 539.6
12:24 26,3 13,0 6,0 NE 7,0 1019,0 44 - 540.5
12:29 26,8 13,2 6,0 ENE 9,0 1019,0 43 - 539.1
12:34 26,7 12,8 5,0 NE 7,0 1018,9 43 - 543.5
12:39 26,7 12,6 6,0 NNE 7,0 1019,0 42 - 537.9
12:44 27,5 12,4 4,0 NNE 4,0 1019,0 41 - 531.8
12:49 27,9 12,7 8,0 ENE 9,0 1018,8 39 - 532.3
12:54 27,3 12,2 6,0 ENE 7,0 1018,9 39 - 518.8
12:59 27,8 11,5 6,0 ENE 7,0 1018,9 37 - 511
13:04 27,8 11,7 6,0 ENE 7,0 1018,9 37 - 514.1
13:09 27,9 11,3 7,0 ENE 7,0 1018,9 36 - 511.4
13:14 27,9 11,3 6,0 NE 7,0 1018,9 36 - 490.2
13:19 27,9 11,1 5,0 NE 7,0 1018,9 35 - 491.9
13:24 28,3 11,4 6,0 ENE 7,0 1018,7 35 - 527
13:29 28,3 10,9 4,0 North 6,0 1018,8 34 - 534.8
13:34 28,8 11,2 4,0 NE 6,0 1018,6 34 - 543.5
13:39 29,2 11,1 4,0 NE 6,0 1018,7 33 - 540.5
13:44 29,6 11,6 6,0 NNW 7,0 1018,5 34 - 538.8
13:49 28,6 11,2 6,0 ENE 7,0 1018,5 34 - 534
13:54 28,9 11,2 6,0 NE 7,0 1018,6 34 - 541.8
13:59 29,0 11,4 10,0 NNE 13,0 1018,4 34 - 538.8
14:04 29,0 11,2 6,0 NNE 7,0 1018,5 33 - 533.1
14:09 28,8 11,3 7,0 NNE 7,0 1018,3 34 - 530.1
14:14 29,5 11,4 6,0 NE 7,0 1018,4 33 - 530.5
14:19 29,7 11,8 8,0 ENE 9,0 1018,2 33 - 530.9
14:24 29,6 11,2 6,0 ENE 7,0 1018,2 32 - 531.3
14:29 29,7 11,0 8,0 ENE 9,0 1018,3 32 - 517.5
14:34 29,7 11,3 7,0 NNE 9,0 1018,2 32 - 515.8
14:39 30,5 11,0 5,0 NNE 6,0 1018,0 32 - 504.5
14:44 30,6 11,6 7,0 ENE 11,0 1018,0 31 - 499.7
14:49 30,2 11,6 6,0 NE 9,0 1017,9 32 - 488.4
14:54 30,0 11,1 6,0 NNE 7,0 1017,9 31 - 494.1
14:59 30,2 11,6 6,0 ENE 7,0 1017,9 32 - 491.9
15:04 30,1 11,2 7,0 ENE 9,0 1017,8 31 - 485.4
15:09 30,2 11,1 6,0 NE 9,0 1017,7 31 - 482.7
15:14 30,8 11,3 4,0 NE 6,0 1017,6 30 - 473.7
15:19 31,7 11,5 4,0 ENE 6,0 1017,5 29 - 467.6
15:24 31,2 11,4 6,0 NE 7,0 1017,6 30 - 457.7
15:29 31,1 11,0 4,0 NNE 6,0 1017,6 29 - 445.4
15:34 31,4 11,3 6,0 NE 9,0 1017,5 29 - 436.4
15:39 31,1 11,2 7,0 North 9,0 1017,5 30 - 423.8
15:44 30,8 10,9 6,0 NNE 7,0 1017,4 30 - 417.7
15:49 30,9 11,2 6,0 NNW 9,0 1017,4 30 - 406.4
15:54 30,5 10,8 6,0 NNW 7,0 1017,3 30 - 399.4
15:59 30,6 11,1 6,0 NNW 7,0 1017,3 30 - 387
16:04 30,5 11,0 8,0 North 9,0 1017,4 30 - 371.8
16:09 30,0 10,6 6,0 NNE 6,0 1017,4 30 - 352.6
16:14 30,9 10,9 4,0 North 6,0 1017,4 30 - 338.8
16:19 30,9 11,3 6,0 North 7,0 1017,4 30 - 333.1
16:24 30,7 11,1 5,0 North 7,0 1017,5 30 - 323.1
16:29 30,4 10,9 6,0 NNW 7,0 1017,2 30 - 318.8
16:34 30,3 10,8 5,0 NW 7,0 1017,2 30 - 302.8
16:39 30,4 10,9 6,0 NW 7,0 1017,1 30 - 292.4
16:44 30,2 10,7 5,0 NNW 6,0 1017,0 30 - 281
16:49 30,4 11,2 5,0 NNW 6,0 1017,1 31 - 264.6
16:54 30,6 11,5 6,0 NW 6,0 1017,1 31 - 249.4
16:59 30,6 11,6 5,0 WNW 6,0 1017,1 31 - 242.5
17:04 30,1 10,7 5,0 NW 6,0 1017,1 30 - 235
17:09 30,0 11,1 6,0 WNW 6,0 1017,0 31 - 223.8
17:14 30,0 10,9 4,0 WNW 6,0 1017,1 31 - 207.4
17:19 30,1 10,6 4,0 NW 6,0 1017,2 30 - 199
17:24 30,1 10,9 6,0 NW 6,0 1017,1 31 - 186.9
17:29 29,8 10,9 4,0 WNW 4,0 1017,2 31 - 173
17:34 30,0 10,6 3,0 NW 4,0 1017,0 30 - 163.9
17:39 30,0 11,1 3,0 WNW 4,0 1017,0 31 - 149.6
17:44 29,9 11,0 4,0 WNW 6,0 1017,1 31 - 139.2
17:49 29,9 10,9 3,0 WNW 4,0 1016,9 31 - 128
17:54 29,8 10,9 2,0 WNW 4,0 1017,2 31 - 116.6
17:59 29,7 10,8 4,0 WNW 4,0 1017,0 31 - 105.8
18:04 29,8 10,8 3,0 WNW 4,0 1017,1 31 - 96.7
18:09 29,8 10,4 2,0 WNW 4,0 1017,0 30 - 87.1
18:14 29,7 11,4 5,0 WNW 6,0 1017,1 33 - 78.9
18:19 29,2 12,0 6,0 West 7,0 1017,0 35 - 69.7
18:24 28,5 12,0 8,0 WNW 9,0 1017,1 36 - 62.9
18:29 28,1 12,0 5,0 West 7,0 1017,0 37 - 54.6
18:34 28,0 12,0 5,0 WNW 6,0 1017,1 37 - 47.2
18:39 27,9 11,9 5,0 WNW 6,0 1017,0 37 - 42
18:44 27,9 12,3 6,0 WNW 6,0 1016,9 38 - 34.3
18:49 27,7 12,1 3,0 WNW 4,0 1017,1 38 - 28.1
18:54 27,6 12,4 4,0 West 4,0 1017,1 39 - 22.5
18:59 27,5 12,4 4,0 WNW 6,0 1017,0 39 - 16
19:04 27,5 13,3 2,0 WNW 4,0 1017,1 42 - 12.1
19:09 27,3 15,0 4,0 NW 6,0 1017,0 49 - 8.2
19:14 26,3 14,8 5,0 NW 6,0 1017,0 50 - 4.3
19:19 25,9 14,3 4,0 WNW 6,0 1017,0 49 - 1.7
19:24 26,2 13,5 5,0 WNW 6,0 1017,2 46 - -
19:29 26,2 13,4 4,0 NW 6,0 1017,1 45 - -
19:34 26,1 13,2 3,0 NW 4,0 1017,1 45 - -
19:39 26,0 13,2 4,0 NW 6,0 1017,1 45 - -
19:44 25,8 13,3 6,0 NW 6,0 1017,1 46 - -
19:49 25,7 13,2 5,0 WNW 6,0 1017,2 46 - -
19:54 25,7 13,5 6,0 NW 7,0 1017,2 47 - -
19:59 25,5 13,4 6,0 WNW 7,0 1017,2 47 - -
20:04 25,5 13,4 6,0 NW 7,0 1017,2 47 - -
20:09 25,3 13,2 6,0 NW 7,0 1017,3 47 - -
20:14 25,3 13,2 6,0 WNW 7,0 1017,3 47 - -
20:19 25,3 12,9 6,0 NW 7,0 1017,3 46 - -
20:24 25,3 12,9 5,0 NW 6,0 1017,3 46 - -
20:29 25,2 12,8 3,0 NW 4,0 1017,4 46 - -
20:34 25,0 12,6 2,0 WNW 4,0 1017,6 46 - -
20:39 24,9 12,8   Calm   1017,4 47 - -
20:44 24,7 13,0   Calm   1017,6 48 - -
20:49 24,8 13,3   Calm   1017,7 49 - -
20:54 24,6 13,1   Calm   1017,6 49 - -
20:59 24,3 13,0   Calm   1017,8 50 - -
21:04 24,0 13,3   Calm   1017,6 51 - -
21:09 23,7 13,2   Calm   1017,6 52 - -
21:14 23,6 13,2   Calm   1017,8 52 - -
21:19 23,6 13,4   Calm   1017,9 53 - -
21:24 23,5 13,6   Calm   1017,8 54 - -
21:29 23,4 13,6 3,0 SE 4,0 1017,9 54 - -
21:34 23,1 13,5 1,0 SE 2,0 1017,9 55 - -
21:39 22,8 13,6 2,0 SE 2,0 1017,8 56 - -
21:44 22,7 13,5 2,0 SE 2,0 1018,0 56 - -
21:49 22,6 13,7 2,0 SE 2,0 1017,9 58 - -
21:54 22,4 13,7 2,0 SSE 4,0 1017,9 58 - -
21:59 22,3 13,4 2,0 SSE 2,0 1018,0 57 - -
22:04 22,3 13,4   Calm   1018,1 57 - -
22:09 22,3 13,3 1,0 SW 2,0 1018,0 57 - -
22:14 22,5 13,2 1,0 SW 2,0 1018,0 56 - -
22:19 22,4 13,2   Calm   1018,1 56 - -
22:24 22,4 13,2   Calm   1018,1 56 - -
22:29 22,4 13,5   Calm   1018,1 57 - -
22:34 22,4 13,4 2,0 SW 2,0 1017,9 57 - -
22:39 22,4 13,2 1,0 SW 2,0 1018,1 56 - -
22:44 22,3 13,1 2,0 WSW 2,0 1018,0 56 - -
22:49 22,1 12,6 2,0 SW 2,0 1018,0 55 - -
22:54 22,0 12,6 2,0 WSW 4,0 1018,1 55 - -
22:59 21,9 12,5 2,0 West 4,0 1018,1 55 - -
23:04 21,8 12,7 1,0 SW 2,0 1018,1 56 - -
23:09 21,7 12,7 1,0 SSW 2,0 1018,3 57 - -
23:14 21,5 12,7   Calm   1018,1 57 - -

Descarregue uma cópia destes dados em  WeatherUnderground

Dados meteorológicos armazenados em Weather Underground. Original desenvolvido por Jim McMurry. Reescrito para uso de modelo Leuven-Template